Time,TemperatureF,DewpointF,PressureIn,WindDirection,WindDirectionDegrees,WindSpeedMPH,WindSpeedGustMPH,Humidity,HourlyPrecipIn,Conditions,Clouds,dailyrainin,SoftwareType,DateUTC
2013-09-06 00:14:00,62.6,59.0,30.06,ESE,112,0.0,-999.0,88,-99.99,,,0.00,Acu-Link.com,2013-09-06 05:14:00,
2013-09-06 00:29:00,62.6,59.0,30.06,ESE,112,1.1,-999.0,88,-99.99,,,0.00,Acu-Link.com,2013-09-06 05:29:00,
2013-09-06 00:45:00,63.5,58.9,30.05,ESE,112,0.0,-999.0,85,-99.99,,,0.00,Acu-Link.com,2013-09-06 05:45:00,
2013-09-06 01:00:00,63.7,58.8,30.05,ESE,112,0.0,-999.0,84,-99.99,,,0.00,Acu-Link.com,2013-09-06 06:00:00,
2013-09-06 01:15:00,64.2,58.9,30.05,ESE,112,1.1,-999.0,83,-99.99,,,0.00,Acu-Link.com,2013-09-06 06:15:00,
2013-09-06 01:30:00,63.9,59.0,30.06,ESE,112,0.0,-999.0,84,-99.99,,,0.00,Acu-Link.com,2013-09-06 06:30:00,
2013-09-06 01:45:00,63.7,58.8,30.06,ESE,112,0.0,-999.0,84,-99.99,,,0.00,Acu-Link.com,2013-09-06 06:45:00,
2013-09-06 02:00:00,64.8,59.5,30.05,ESE,112,2.2,-999.0,83,-99.99,,,0.00,Acu-Link.com,2013-09-06 07:00:00,
2013-09-06 02:16:00,65.7,59.7,30.05,SE,135,1.7,-999.0,81,-99.99,,,0.00,Acu-Link.com,2013-09-06 07:16:00,
2013-09-06 02:31:00,66.6,59.9,30.05,SE,135,2.2,-999.0,79,-99.99,,,0.00,Acu-Link.com,2013-09-06 07:31:00,
2013-09-06 02:46:00,66.2,59.5,30.05,SE,135,2.2,-999.0,79,-99.99,,,0.00,Acu-Link.com,2013-09-06 07:46:00,
2013-09-06 03:02:00,65.5,59.5,30.05,SE,135,0.0,-999.0,81,-99.99,,,0.00,Acu-Link.com,2013-09-06 08:02:00,
2013-09-06 03:18:00,65.3,59.3,30.05,SE,135,0.0,-999.0,81,-99.99,,,0.00,Acu-Link.com,2013-09-06 08:18:00,
2013-09-06 03:33:00,64.9,59.3,30.05,SE,135,0.0,-999.0,82,-99.99,,,0.00,Acu-Link.com,2013-09-06 08:33:00,
2013-09-06 03:48:00,63.7,59.1,30.05,SE,135,0.0,-999.0,85,-99.99,,,0.00,Acu-Link.com,2013-09-06 08:48:00,
2013-09-06 04:03:00,63.3,59.0,30.05,SE,135,0.0,-999.0,86,-99.99,,,0.00,Acu-Link.com,2013-09-06 09:03:00,
2013-09-06 04:18:00,62.8,58.9,30.04,SE,135,0.0,-999.0,87,-99.99,,,0.00,Acu-Link.com,2013-09-06 09:18:00,
2013-09-06 04:33:00,62.8,59.2,30.05,SE,135,0.0,-999.0,88,-99.99,,,0.00,Acu-Link.com,2013-09-06 09:33:00,
2013-09-06 04:49:00,63.5,59.6,30.05,ESE,112,0.0,-999.0,87,-99.99,,,0.00,Acu-Link.com,2013-09-06 09:49:00,
2013-09-06 05:04:00,63.9,60.0,30.04,SE,135,0.0,-999.0,87,-99.99,,,0.00,Acu-Link.com,2013-09-06 10:04:00,
2013-09-06 05:19:00,63.7,59.8,30.04,ESE,112,0.0,-999.0,87,-99.99,,,0.00,Acu-Link.com,2013-09-06 10:19:00,
2013-09-06 05:34:00,63.7,59.8,30.05,ESE,112,0.0,-999.0,87,-99.99,,,0.00,Acu-Link.com,2013-09-06 10:34:00,
2013-09-06 05:51:00,64.0,60.0,30.05,ESE,112,0.0,-999.0,87,-99.99,,,0.00,Acu-Link.com,2013-09-06 10:51:00,
2013-09-06 06:07:00,63.7,59.8,30.05,ESE,112,0.0,-999.0,87,-99.99,,,0.00,Acu-Link.com,2013-09-06 11:07:00,
2013-09-06 06:22:00,63.5,59.9,30.05,ESE,112,0.0,-999.0,88,-99.99,,,0.00,Acu-Link.com,2013-09-06 11:22:00,
2013-09-06 06:37:00,64.2,60.2,30.05,ESE,112,0.0,-999.0,87,-99.99,,,0.00,Acu-Link.com,2013-09-06 11:37:00,
2013-09-06 06:53:00,64.9,60.6,30.05,SSE,157,1.7,-999.0,86,-99.99,,,0.00,Acu-Link.com,2013-09-06 11:53:00,
2013-09-06 07:08:00,65.7,61.1,30.06,SSE,157,1.7,-999.0,85,-99.99,,,0.00,Acu-Link.com,2013-09-06 12:08:00,
2013-09-06 07:24:00,65.5,60.9,30.06,SSE,157,0.0,-999.0,85,-99.99,,,0.00,Acu-Link.com,2013-09-06 12:24:00,
2013-09-06 07:39:00,66.2,61.6,30.06,SE,135,0.0,-999.0,85,-99.99,,,0.00,Acu-Link.com,2013-09-06 12:39:00,
2013-09-06 07:54:00,67.1,62.1,30.06,SE,135,2.2,-999.0,84,-99.99,,,0.00,Acu-Link.com,2013-09-06 12:54:00,
2013-09-06 08:09:00,70.0,62.4,30.06,SSE,157,2.7,-999.0,77,-99.99,,,0.00,Acu-Link.com,2013-09-06 13:09:00,
2013-09-06 08:24:00,71.6,62.5,30.06,SE,135,4.7,-999.0,73,-99.99,,,0.00,Acu-Link.com,2013-09-06 13:24:00,
2013-09-06 08:39:00,73.8,63.4,30.06,South,180,3.2,-999.0,70,-99.99,,,0.00,Acu-Link.com,2013-09-06 13:39:00,
2013-09-06 08:54:00,75.7,63.1,30.06,ESE,112,5.8,-999.0,65,-99.99,,,0.00,Acu-Link.com,2013-09-06 13:54:00,
2013-09-06 09:10:00,77.0,63.4,30.06,South,180,4.7,-999.0,63,-99.99,,,0.00,Acu-Link.com,2013-09-06 14:10:00,
2013-09-06 09:25:00,78.4,64.3,30.06,South,180,3.2,-999.0,62,-99.99,,,0.00,Acu-Link.com,2013-09-06 14:25:00,
2013-09-06 09:41:00,81.0,64.3,30.06,South,180,5.3,-999.0,57,-99.99,,,0.00,Acu-Link.com,2013-09-06 14:41:00,
2013-09-06 09:56:00,81.9,64.1,30.06,SSW,202,4.2,-999.0,55,-99.99,,,0.00,Acu-Link.com,2013-09-06 14:56:00,
2013-09-06 10:11:00,83.1,64.2,30.05,South,180,4.7,-999.0,53,-99.99,,,0.00,Acu-Link.com,2013-09-06 15:11:00,
2013-09-06 10:26:00,83.1,62.5,30.05,South,180,5.8,-999.0,50,-99.99,,,0.00,Acu-Link.com,2013-09-06 15:26:00,
2013-09-06 10:42:00,83.3,62.1,30.05,South,180,10.4,-999.0,49,-99.99,,,0.00,Acu-Link.com,2013-09-06 15:42:00,
2013-09-06 10:57:00,84.7,62.8,30.05,SE,135,5.8,-999.0,48,-99.99,,,0.00,Acu-Link.com,2013-09-06 15:57:00,
2013-09-06 11:12:00,85.6,61.8,30.05,SSW,202,2.7,-999.0,45,-99.99,,,0.00,Acu-Link.com,2013-09-06 16:12:00,
2013-09-06 11:27:00,86.5,61.3,30.05,SSW,202,5.3,-999.0,43,-99.99,,,0.00,Acu-Link.com,2013-09-06 16:27:00,
2013-09-06 11:42:00,86.7,60.8,30.05,SSW,202,9.4,-999.0,42,-99.99,,,0.00,Acu-Link.com,2013-09-06 16:42:00,
2013-09-06 11:58:00,88.2,62.8,30.05,SSW,202,3.7,-999.0,43,-99.99,,,0.00,Acu-Link.com,2013-09-06 16:58:00,
2013-09-06 12:13:00,87.6,62.3,30.04,South,180,7.3,-999.0,43,-99.99,,,0.00,Acu-Link.com,2013-09-06 17:13:00,
2013-09-06 12:28:00,88.2,63.5,30.03,SSW,202,6.3,-999.0,44,-99.99,,,0.00,Acu-Link.com,2013-09-06 17:28:00,
2013-09-06 12:43:00,88.9,63.5,30.02,SW,225,6.3,-999.0,43,-99.99,,,0.00,Acu-Link.com,2013-09-06 17:43:00,
2013-09-06 12:58:00,88.7,63.3,30.01,South,180,6.3,-999.0,43,-99.99,,,0.00,Acu-Link.com,2013-09-06 17:58:00,
2013-09-06 13:09:00,-999.0,-99.9,-100.00,North,-999,-999.0,-999.0,-999,-99.99,,,-99.99,Acu-Link.com,2013-09-06 18:09:00,
2013-09-06 13:34:00,-999.0,-99.9,-100.00,North,-999,-999.0,-999.0,-999,-99.99,,,-99.99,Acu-Link.com,2013-09-06 18:34:00,
2013-09-06 13:59:00,-999.0,-99.9,-100.00,North,-999,-999.0,-999.0,-999,-99.99,,,-99.99,Acu-Link.com,2013-09-06 18:59:00,
2013-09-06 14:15:00,91.4,64.3,29.98,SSW,202,6.3,-999.0,41,-99.99,,,0.00,Acu-Link.com,2013-09-06 19:15:00,
2013-09-06 14:27:00,-999.0,-99.9,-100.00,North,-999,-999.0,-999.0,-999,-99.99,,,-99.99,Acu-Link.com,2013-09-06 19:27:00,
2013-09-06 14:45:00,91.4,65.0,29.97,South,180,7.8,-999.0,42,-99.99,,,0.00,Acu-Link.com,2013-09-06 19:45:00,
2013-09-06 15:00:00,91.9,64.8,29.96,SSE,157,8.9,-999.0,41,-99.99,,,0.00,Acu-Link.com,2013-09-06 20:00:00,
2013-09-06 15:16:00,91.9,64.1,29.90,South,180,5.8,-999.0,40,-99.99,,,0.00,Acu-Link.com,2013-09-06 20:16:00,
2013-09-06 15:31:00,92.3,64.4,29.95,ESE,112,4.7,-999.0,40,-99.99,,,0.00,Acu-Link.com,2013-09-06 20:31:00,
2013-09-06 15:46:00,91.9,64.8,29.95,ESE,112,5.8,-999.0,41,-99.99,,,0.00,Acu-Link.com,2013-09-06 20:46:00,
2013-09-06 16:01:00,92.1,65.0,29.94,ESE,112,4.7,-999.0,41,-99.99,,,0.00,Acu-Link.com,2013-09-06 21:01:00,
2013-09-06 16:16:00,91.8,64.7,29.94,SSW,202,6.8,-999.0,41,-99.99,,,0.00,Acu-Link.com,2013-09-06 21:16:00,
2013-09-06 16:31:00,91.9,65.5,29.93,South,180,4.7,-999.0,42,-99.99,,,0.00,Acu-Link.com,2013-09-06 21:31:00,
2013-09-06 16:47:00,90.9,65.3,29.93,SE,135,6.3,-999.0,43,-99.99,,,0.00,Acu-Link.com,2013-09-06 21:47:00,
2013-09-06 17:02:00,90.9,65.3,29.93,SSE,157,8.9,-999.0,43,-99.99,,,0.00,Acu-Link.com,2013-09-06 22:02:00,
2013-09-06 17:18:00,90.5,64.9,29.92,South,180,5.3,-999.0,43,-99.99,,,0.00,Acu-Link.com,2013-09-06 22:18:00,
2013-09-06 17:33:00,89.6,64.8,29.92,South,180,7.8,-999.0,44,-99.99,,,0.00,Acu-Link.com,2013-09-06 22:33:00,
2013-09-06 17:48:00,89.1,64.3,29.92,SSE,157,5.8,-999.0,44,-99.99,,,0.00,Acu-Link.com,2013-09-06 22:48:00,
2013-09-06 18:03:00,88.9,64.1,29.93,South,180,5.8,-999.0,44,-99.99,,,0.00,Acu-Link.com,2013-09-06 23:03:00,
2013-09-06 18:18:00,87.8,64.4,29.92,SSW,202,6.3,-999.0,46,-99.99,,,0.00,Acu-Link.com,2013-09-06 23:18:00,
2013-09-06 18:33:00,86.7,63.4,29.92,SSE,157,4.7,-999.0,46,-99.99,,,0.00,Acu-Link.com,2013-09-06 23:33:00,
2013-09-06 18:48:00,85.3,63.9,29.91,ESE,112,4.7,-999.0,49,-99.99,,,0.00,Acu-Link.com,2013-09-06 23:48:00,
2013-09-06 19:03:00,83.7,63.6,29.91,SSE,157,5.8,-999.0,51,-99.99,,,0.00,Acu-Link.com,2013-09-07 00:03:00,
2013-09-06 19:19:00,81.7,63.9,29.90,ESE,112,3.7,-999.0,55,-99.99,,,0.00,Acu-Link.com,2013-09-07 00:19:00,
2013-09-06 19:34:00,80.4,63.7,29.91,ESE,112,2.7,-999.0,57,-99.99,,,0.00,Acu-Link.com,2013-09-07 00:34:00,
2013-09-06 19:49:00,79.2,63.6,29.91,ESE,112,3.7,-999.0,59,-99.99,,,0.00,Acu-Link.com,2013-09-07 00:49:00,
2013-09-06 20:04:00,78.3,63.3,29.91,South,180,2.7,-999.0,60,-99.99,,,0.00,Acu-Link.com,2013-09-07 01:04:00,
2013-09-06 20:19:00,76.8,62.8,29.91,South,180,2.7,-999.0,62,-99.99,,,0.00,Acu-Link.com,2013-09-07 01:19:00,
2013-09-06 20:34:00,76.3,62.8,29.91,South,180,3.7,-999.0,63,-99.99,,,0.00,Acu-Link.com,2013-09-07 01:34:00,
2013-09-06 20:50:00,76.1,63.0,29.92,South,180,3.7,-999.0,64,-99.99,,,0.00,Acu-Link.com,2013-09-07 01:50:00,
2013-09-06 21:05:00,75.7,62.6,29.91,South,180,5.3,-999.0,64,-99.99,,,0.00,Acu-Link.com,2013-09-07 02:05:00,
2013-09-06 21:20:00,75.6,63.0,29.91,SSW,202,3.7,-999.0,65,-99.99,,,0.00,Acu-Link.com,2013-09-07 02:20:00,
2013-09-06 21:35:00,74.8,62.7,29.91,SSW,202,1.7,-999.0,66,-99.99,,,0.00,Acu-Link.com,2013-09-07 02:35:00,
2013-09-06 21:50:00,73.8,62.6,29.91,SSW,202,2.7,-999.0,68,-99.99,,,0.00,Acu-Link.com,2013-09-07 02:50:00,
2013-09-06 22:06:00,73.2,62.4,29.91,SSW,202,1.7,-999.0,69,-99.99,,,0.00,Acu-Link.com,2013-09-07 03:06:00,
2013-09-06 22:21:00,72.9,62.5,29.91,SSW,202,2.7,-999.0,70,-99.99,,,0.00,Acu-Link.com,2013-09-07 03:21:00,
2013-09-06 22:36:00,72.7,62.7,29.91,SSW,202,3.7,-999.0,71,-99.99,,,0.00,Acu-Link.com,2013-09-07 03:36:00,
2013-09-06 22:51:00,72.9,62.9,29.91,South,180,3.7,-999.0,71,-99.99,,,0.00,Acu-Link.com,2013-09-07 03:51:00,
2013-09-06 23:06:00,72.5,62.5,29.91,SSE,157,3.7,-999.0,71,-99.99,,,0.00,Acu-Link.com,2013-09-07 04:06:00,
2013-09-06 23:22:00,72.0,62.5,29.91,SE,135,4.2,-999.0,72,-99.99,,,0.00,Acu-Link.com,2013-09-07 04:22:00,
2013-09-06 23:37:00,72.1,62.6,29.91,South,180,2.7,-999.0,72,-99.99,,,0.00,Acu-Link.com,2013-09-07 04:37:00,
2013-09-06 23:52:00,72.5,62.5,29.91,South,180,3.7,-999.0,71,-99.99,,,0.00,Acu-Link.com,2013-09-07 04:52:00,